Location: UBC Liquid-Mirror Observatory
(49.2876°N, 122.5728°W)
Time: 06:20:22
(UTC-07:00)

Amateur Radio Satellites - All Passes

Search period start: 20 April 2014 05:50
Search period end: 21 April 2014 05:50
Location: UBC Liquid-Mirror Observatory, 49.2876°N, 122.5728°W

Satellite Date Start Highest point End Downlink Frequencies (MHz)
Time Altitude Azimuth
AO-27 20 Apr 05:50:47 05:51:43 11° 311° (NW) 05:52:38 436.795 MHz FM
Sapphire 20 Apr 06:03:54 06:05:54 12° 4° (N) 06:07:54 437.095 MHz 1200 baud AX-25 AFSK
Uosat F 20 Apr 06:16:40 06:21:22 42° 294° (WNW) 06:26:03 435.120 FM
TMSAT-1 20 Apr 06:33:14 06:36:26 17° 306° (NW) 06:39:38 436.925 FM
AO-40 20 Apr 06:41:30 11:26:11 26° 170° (S) 13:51:05 Beacon 2401.320
MaSat-1 20 Apr 06:48:16 06:51:05 69° 59° (ENE) 06:54:22 437.345 MHz
PCSat 20 Apr 06:49:01 06:51:56 14° 17° (NNE) 06:54:49 145.825 MHz
RS-15 20 Apr 06:53:00 07:03:29 47° 113° (ESE) 07:13:40 29.354 - 29.394 USB, Beacon 29.352 USB
Hamsat 20 Apr 06:54:59 06:58:55 32° 95° (E) 07:02:51 145.90 MHz
KITSAT 1 20 Apr 07:05:07 07:11:44 26° 346° (NNW) 07:18:21 435.175 FM
STRAND 1 20 Apr 07:20:45 07:25:45 53° 260° (W) 07:30:46 ?
JAS-1B 20 Apr 07:27:24 07:30:45 16° 309° (NW) 07:34:05 435.800 - 435.900 CW/SSB
AO-7 20 Apr 07:31:12 07:38:50 43° 304° (NW) 07:46:29 29.400 - 29.500 MHz
Sapphire 20 Apr 07:47:21 07:51:30 22° 30° (NNE) 07:55:38 437.095 MHz 1200 baud AX-25 AFSK
SO-67 20 Apr 07:47:42 07:50:27 21° 93° (E) 07:53:10 435.3500 MHz FM
JAS-2 20 Apr 08:03:26 08:08:37 48° 100° (E) 08:14:14 435.800 - 435.900 CW/SSB, 435.910 FM
Hamsat 20 Apr 08:31:03 08:34:53 31° 294° (WNW) 08:38:42 145.90 MHz
PCSat 20 Apr 08:32:00 08:37:00 36° 41° (NE) 08:41:58 145.825 MHz
KITSAT 1 20 Apr 09:03:22 09:10:04 27° 16° (NNE) 09:16:44 435.175 FM
RS-15 20 Apr 09:04:21 09:15:29 67° 318° (NW) 09:26:25 29.354 - 29.394 USB, Beacon 29.352 USB
HO-68 20 Apr 09:09:48 09:15:03 21° 89° (E) 09:20:16 435.675 MHz FM
SO-67 20 Apr 09:20:32 09:23:40 30° 291° (WNW) 09:26:46 435.3500 MHz FM
AO-7 20 Apr 09:25:35 09:29:31 14° 328° (NNW) 09:33:28 29.400 - 29.500 MHz
Sapphire 20 Apr 09:30:23 09:35:51 75° 53° (NE) 09:41:15 437.095 MHz 1200 baud AX-25 AFSK
JAS-2 20 Apr 09:49:04 09:53:36 29° 297° (WNW) 09:58:26 435.800 - 435.900 CW/SSB, 435.910 FM
Oscar 11 20 Apr 10:09:40 10:13:00 21° 92° (E) 10:16:20 145.825 FM, Beacon 2401.500 USB
PCSat 20 Apr 10:15:23 10:20:39 52° 243° (WSW) 10:25:52 145.825 MHz
HO-68 20 Apr 10:56:26 11:03:40 87° 289° (WNW) 11:10:52 435.675 MHz FM
KITSAT 1 20 Apr 10:59:24 11:07:24 56° 43° (NE) 11:15:18 435.175 FM
Oscar 10/S400 20 Apr 11:07:36 12:39:21 45° 228° (SW) 18:18:41 145.825 - 145.975 CW/USB, Beacon 145.810 USB
Sapphire 20 Apr 11:14:46 11:18:42 21° 253° (WSW) 11:22:37 437.095 MHz 1200 baud AX-25 AFSK
RS-15 20 Apr 11:20:11 11:30:12 37° 349° (N) 11:40:09 29.354 - 29.394 USB, Beacon 29.352 USB
Saudisat 1A 20 Apr 11:23:04 11:27:16 42° 121° (ESE) 11:31:29 436.775 MHz
FUNcube-1 20 Apr 11:38:09 11:42:19 54° 100° (E) 11:46:34 145.950 - 145.970 MHz USB
Oscar 11 20 Apr 11:45:16 11:49:27 47° 290° (WNW) 11:53:38 145.825 FM, Beacon 2401.500 USB
AO-27 20 Apr 12:16:39 12:17:55 11° 49° (NE) 12:19:10 436.795 MHz FM
ITAMSAT 1 20 Apr 12:26:01 12:28:12 13° 51° (NE) 12:30:22 435.822 SSB
Oscar 19 20 Apr 12:26:28 12:30:12 21° 58° (ENE) 12:33:58 437.125 CW, 437.150 USB
Oscar 16 20 Apr 12:34:27 12:38:34 25° 60° (ENE) 12:42:43 437.025 USB, Beacon 2401.1428
HO-68 20 Apr 12:45:06 12:50:30 24° 310° (NW) 12:55:55 435.675 MHz FM
KITSAT 1 20 Apr 12:55:06 13:02:45 48° 246° (WSW) 13:10:20 435.175 FM
Saudisat 1A 20 Apr 13:02:50 13:06:58 36° 321° (NW) 13:11:07 436.775 MHz
AO-7 20 Apr 13:05:35 13:07:33 11° 24° (NNE) 13:09:31 29.400 - 29.500 MHz
Uribyol 2 20 Apr 13:11:25 13:15:45 28° 61° (ENE) 13:20:07 436.500 FM
FUNcube-1 20 Apr 13:15:24 13:18:26 19° 298° (WNW) 13:21:30 145.950 - 145.970 MHz USB
RS-15 20 Apr 13:35:36 13:45:54 43° 23° (NNE) 13:56:15 29.354 - 29.394 USB, Beacon 29.352 USB
AO-27 20 Apr 13:51:19 13:56:22 56° 69° (ENE) 14:01:27 436.795 MHz FM
Gurwin Techsat 1B 20 Apr 13:51:27 13:55:26 22° 58° (ENE) 13:59:25 435.225 FM
AO-Echo 20 Apr 13:57:14 14:02:15 49° 69° (ENE) 14:07:08 ?
ITAMSAT 1 20 Apr 14:01:38 14:06:46 66° 71° (ENE) 14:11:55 435.822 SSB
Oscar 19 20 Apr 14:03:55 14:09:03 71° 257° (WSW) 14:14:15 437.125 CW, 437.150 USB
Oscar 16 20 Apr 14:12:33 14:17:36 57° 259° (W) 14:22:42 437.025 USB, Beacon 2401.1428
Uosat F 20 Apr 14:20:32 14:22:22 12° 51° (NE) 14:24:12 435.120 FM
JAS-1B 20 Apr 14:34:56 14:41:00 28° 59° (ENE) 14:46:19 435.800 - 435.900 CW/SSB
TMSAT-1 20 Apr 14:37:51 14:42:38 36° 64° (ENE) 14:47:27 436.925 FM
Saudisat 1A 20 Apr 14:45:30 14:47:50 14° 344° (NNW) 14:50:09 436.775 MHz
Uribyol 2 20 Apr 14:50:02 14:55:01 49° 260° (W) 15:00:03 436.500 FM
AO-7 20 Apr 14:50:49 14:57:44 31° 50° (NE) 15:04:40 29.400 - 29.500 MHz
ISS 20 Apr 15:08:32 15:10:36 16° 138° (SE) 15:12:41 145.800 FM
OPAL 20 Apr 15:08:36 15:12:42 23° 94° (E) 15:16:46 ?
Gurwin Techsat 1B 20 Apr 15:29:38 15:34:56 69° 257° (WSW) 15:40:15 435.225 FM
AO-27 20 Apr 15:32:07 15:36:14 24° 268° (W) 15:40:23 436.795 MHz FM
AO-Echo 20 Apr 15:36:53 15:41:14 26° 267° (W) 15:45:31 ?
ITAMSAT 1 20 Apr 15:43:01 15:46:45 20° 270° (W) 15:50:30 435.822 SSB
Oscar 19 20 Apr 15:48:23 15:49:22 11° 276° (W) 15:50:21 437.125 CW, 437.150 USB
RS-15 20 Apr 15:48:41 15:59:41 90° 52° (NE) 16:10:53 29.354 - 29.394 USB, Beacon 29.352 USB
Uosat F 20 Apr 15:55:16 16:00:14 64° 71° (ENE) 16:05:13 435.120 FM
SO-50 20 Apr 15:55:18 15:59:36 47° 122° (ESE) 16:03:58 436.795 FM
TMSAT-1 20 Apr 16:17:38 16:22:33 38° 263° (W) 16:27:29 436.925 FM
JAS-1B 20 Apr 16:23:29 16:31:19 71° 256° (WSW) 16:37:52 435.800 - 435.900 CW/SSB
Saudisat 1A 20 Apr 16:27:35 16:29:20 12° 9° (N) 16:31:04 436.775 MHz
AO-7 20 Apr 16:41:31 16:49:49 81° 252° (WSW) 16:58:10 29.400 - 29.500 MHz
ISS 20 Apr 16:43:33 16:46:52 69° 156° (SSE) 16:50:13 145.800 FM
OPAL 20 Apr 16:46:49 16:51:58 60° 293° (WNW) 16:57:05 ?
Gurwin Techsat 1B 20 Apr 17:14:59 17:15:55 10° 277° (W) 17:16:50 435.225 FM
Uosat F 20 Apr 17:35:52 17:39:29 20° 269° (W) 17:43:07 435.120 FM
SO-50 20 Apr 17:36:16 17:40:21 33° 323° (NW) 17:44:29 436.795 FM
Hamsat 20 Apr 17:52:33 17:56:28 38° 69° (ENE) 18:00:26 145.90 MHz
RS-15 20 Apr 18:01:56 18:10:40 29° 256° (WSW) 18:19:36 29.354 - 29.394 USB, Beacon 29.352 USB
Saudisat 1A 20 Apr 18:06:44 18:10:27 25° 33° (NNE) 18:14:08 436.775 MHz
UOSAT-12 20 Apr 18:10:49 18:15:19 59° 124° (SE) 18:19:55 437.025 FM, 437.400 FM
JAS-1B 20 Apr 18:19:15 18:22:52 14° 274° (W) 18:26:15 435.800 - 435.900 CW/SSB
ISS 20 Apr 18:20:24 18:23:43 56° 356° (N) 18:27:02 145.800 FM
JAS-2 20 Apr 18:20:56 18:25:51 33° 64° (ENE) 18:30:30 435.800 - 435.900 CW/SSB, 435.910 FM
SO-67 20 Apr 18:26:15 18:28:25 16° 63° (ENE) 18:30:36 435.3500 MHz FM
OPAL 20 Apr 18:27:46 18:29:52 13° 312° (NW) 18:31:58 ?
AO-7 20 Apr 18:38:17 18:43:55 20° 273° (W) 18:49:35 29.400 - 29.500 MHz
SO-50 20 Apr 19:19:57 19:22:17 14° 346° (NNW) 19:24:37 436.795 FM
STRAND 1 20 Apr 19:27:05 19:31:50 38° 97° (E) 19:36:33 ?
Hamsat 20 Apr 19:29:09 19:32:36 24° 267° (W) 19:36:06 145.90 MHz
HO-68 20 Apr 19:43:13 19:49:01 28° 53° (NE) 19:54:50 435.675 MHz FM
Saudisat 1A 20 Apr 19:46:04 19:50:30 71° 234° (SW) 19:54:51 436.775 MHz
UOSAT-12 20 Apr 19:51:42 19:55:48 30° 325° (NW) 19:59:57 437.025 FM, 437.400 FM
ISS 20 Apr 19:57:18 20:00:41 76° 16° (NNE) 20:04:02 145.800 FM
SO-67 20 Apr 19:57:54 20:01:16 45° 261° (W) 20:04:39 435.3500 MHz FM
JAS-2 20 Apr 20:05:37 20:10:57 41° 262° (W) 20:15:56 435.800 - 435.900 CW/SSB, 435.910 FM
SO-50 20 Apr 21:02:34 21:04:47 13° 12° (NNE) 21:07:01 436.795 FM
STRAND 1 20 Apr 21:06:25 21:11:00 35° 296° (WNW) 21:15:34 ?
FUNcube-1 20 Apr 21:07:13 21:07:23 10° 55° (NE) 21:07:32 145.950 - 145.970 MHz USB
Oscar 11 20 Apr 21:08:48 21:12:30 28° 65° (ENE) 21:16:12 145.825 FM, Beacon 2401.500 USB
HO-68 20 Apr 21:28:56 21:36:05 78° 254° (WSW) 21:43:18 435.675 MHz FM
Saudisat 1A 20 Apr 21:29:08 21:29:15 10° 252° (WSW) 21:29:23 436.775 MHz
ISS 20 Apr 21:34:14 21:37:14 30° 215° (SW) 21:40:13 145.800 FM
UOSAT-12 20 Apr 21:35:02 21:37:25 14° 349° (N) 21:39:50 437.025 FM, 437.400 FM
MaSat-1 20 Apr 22:33:50 22:36:27 44° 304° (WNW) 22:38:53 437.345 MHz
FUNcube-1 20 Apr 22:38:53 22:43:04 73° 74° (ENE) 22:47:14 145.950 - 145.970 MHz USB
SO-50 20 Apr 22:42:43 22:46:48 30° 35° (NE) 22:50:55 436.795 FM
Oscar 11 20 Apr 22:44:39 22:48:36 35° 264° (W) 22:52:36 145.825 FM, Beacon 2401.500 USB
UOSAT-12 20 Apr 23:16:56 23:19:31 14° 14° (NNE) 23:22:07 437.025 FM, 437.400 FM
HO-68 20 Apr 23:20:38 23:24:58 17° 274° (W) 23:29:20 435.675 MHz FM
PCSat 20 Apr 23:23:12 23:23:48 10° 101° (E) 23:24:24 145.825 MHz
Sapphire 21 Apr 00:17:06 00:21:39 28° 111° (ESE) 00:26:12 437.095 MHz 1200 baud AX-25 AFSK
FUNcube-1 21 Apr 00:18:10 00:20:01 13° 272° (W) 00:21:52 145.950 - 145.970 MHz USB
SO-50 21 Apr 00:23:07 00:27:40 59° 236° (SW) 00:32:17 436.795 FM
OPAL 21 Apr 00:52:17 00:54:22 13° 48° (NE) 00:56:28 ?
UOSAT-12 21 Apr 00:56:44 01:01:03 34° 37° (NE) 01:05:21 437.025 FM, 437.400 FM
PCSat 21 Apr 01:00:48 01:06:08 63° 120° (ESE) 01:11:30 145.825 MHz
KITSAT 1 21 Apr 01:35:59 01:40:46 17° 100° (E) 01:45:34 435.175 FM
Sapphire 21 Apr 01:59:26 02:04:46 58° 311° (NW) 02:10:08 437.095 MHz 1200 baud AX-25 AFSK
AO-27 21 Apr 02:01:37 02:04:19 14° 87° (E) 02:07:00 436.795 MHz FM
AO-Echo 21 Apr 02:03:59 02:04:04 10° 84° (E) 02:04:09 ?
ITAMSAT 1 21 Apr 02:11:23 02:14:43 17° 89° (E) 02:18:02 435.822 SSB
Oscar 19 21 Apr 02:11:33 02:16:08 31° 94° (E) 02:20:42 437.125 CW, 437.150 USB
Oscar 16 21 Apr 02:19:59 02:24:50 38° 97° (E) 02:29:39 437.025 USB, Beacon 2401.1428
OPAL 21 Apr 02:27:18 02:32:17 62° 68° (ENE) 02:37:22 ?
UOSAT-12 21 Apr 02:36:50 02:41:25 50° 238° (WSW) 02:45:57 437.025 FM, 437.400 FM
PCSat 21 Apr 02:45:08 02:49:56 31° 321° (NW) 02:54:46 145.825 MHz
Uribyol 2 21 Apr 02:58:19 03:03:15 43° 98° (E) 03:08:11 436.500 FM
KITSAT 1 21 Apr 03:26:42 03:34:45 71° 121° (ESE) 03:42:51 435.175 FM
AO-Echo 21 Apr 03:38:56 03:43:46 77° 103° (ESE) 03:48:28 ?
AO-27 21 Apr 03:39:22 03:44:35 90° 279° (W) 03:49:46 436.795 MHz FM
Gurwin Techsat 1B 21 Apr 03:41:45 03:46:37 35° 96° (E) 03:51:27 435.225 FM
Sapphire 21 Apr 03:45:37 03:49:22 19° 334° (NNW) 03:53:07 437.095 MHz 1200 baud AX-25 AFSK
ITAMSAT 1 21 Apr 03:49:38 03:54:50 77° 288° (WNW) 03:59:59 435.822 SSB
Oscar 19 21 Apr 03:50:42 03:55:38 44° 293° (WNW) 04:00:32 437.125 CW, 437.150 USB
Oscar 16 21 Apr 03:59:28 04:04:10 36° 296° (WNW) 04:08:52 437.025 USB, Beacon 2401.1428
Uosat F 21 Apr 04:00:20 04:02:57 14° 87° (E) 04:05:33 435.120 FM
JAS-1B 21 Apr 04:04:18 04:08:35 21° 91° (E) 04:12:56 435.800 - 435.900 CW/SSB
OPAL 21 Apr 04:07:49 04:11:36 21° 267° (W) 04:15:27 ?
TMSAT-1 21 Apr 04:28:36 04:33:53 63° 102° (ESE) 04:39:08 436.925 FM
PCSat 21 Apr 04:32:31 04:35:09 13° 346° (NNW) 04:37:48 145.825 MHz
Uribyol 2 21 Apr 04:38:05 04:42:37 31° 297° (WNW) 04:47:08 436.500 FM
AO-7 21 Apr 04:38:51 04:45:40 27° 92° (E) 04:52:27 29.400 - 29.500 MHz
STRAND 1 21 Apr 05:10:56 05:13:48 15° 54° (NE) 05:16:40 ?
MaSat-1 21 Apr 05:16:08 05:16:44 10° 45° (NE) 05:17:21 437.345 MHz
AO-Echo 21 Apr 05:18:54 05:21:58 17° 303° (WNW) 05:25:01 ?
AO-27 21 Apr 05:20:12 05:23:25 17° 305° (NW) 05:26:38 436.795 MHz FM
Gurwin Techsat 1B 21 Apr 05:21:44 05:26:38 39° 295° (WNW) 05:31:31 435.225 FM
KITSAT 1 21 Apr 05:23:08 05:30:45 42° 325° (NW) 05:38:24 435.175 FM
ITAMSAT 1 21 Apr 05:30:48 05:33:31 15° 307° (NW) 05:36:13 435.822 SSB
Sapphire 21 Apr 05:33:11 05:35:06 12° 0° (N) 05:37:01 437.095 MHz 1200 baud AX-25 AFSK
Uosat F 21 Apr 05:37:24 05:42:26 87° 286° (WNW) 05:47:27 435.120 FM
